Danville, IN

7:46 PM EDT on July 27, 2017 (GMT -0400)
Vermilion County

Weather History for KDNV - February, 2014

Change the Weather History Date:

Tuesday, February 25, 2014

  Actual Average (KLAF) Record (KLAF)
Temperature  
Mean Temperature 16 °F -  
Max Temperature 23 °F 39 °F 67 °F (1976)
Min Temperature 10 °F 23 °F -6 °F (1967)
Degree Days  
Heating Degree Days 48    
Moisture  
Dew Point 12 °F    
Average Humidity 74    
Maximum Humidity 86    
Minimum Humidity 56    
Precipitation  
Precipitation 0.00 in - - ()
Sea Level Pressure  
Sea Level Pressure 30.19 in    
Wind  
Wind Speed 10 mph (NW)    
Max Wind Speed 21 mph    
Max Gust Speed 28 mph    
Visibility 10 miles    
Events Snow    
Averages and records for this station are not official NWS values.
T = Trace of Precipitation, MM = Missing Value Source: NWS Daily Summary

Daily Weather History Graph

Daily Weather History Graph

Search for Another Location

Airport or City:

Trip Planner

Search our weather history database for the weather conditions in past years. The results will help you decide how hot, cold, wet, or windy it might be!

Date:

Astronomy

Feb. 25, 2014 Rise Set
Actual Time 6:29 AM CST 5:37 PM CST
Civil Twilight 6:02 AM CST 6:05 PM CST
Nautical Twilight 5:30 AM CST 6:36 PM CST
Astronomical Twilight 4:59 AM CST 7:08 PM CST
Moon 3:24 AM CST (2/25) 1:42 PM CST (2/25)
Length of Visible Light 12h 02m
Length of Day
11h 07m
Waning Crescent, 18% of the Moon is Illuminated
Feb 25
Waning Crescent
Mar 1
New
Mar 8
First Quarter
Mar 16
Full
Mar 23
Last Quarter

Hourly Weather History & Observations

Time (CST) Temp. Windchill Dew Point Humidity Pressure Visibility Wind Dir Wind Speed Gust Speed Precip Events Conditions
12:15 AM 23.5 °F 14.5 °F 14.7 °F 69% 30.19 in 10.0 mi WNW 8.1 mph - N/A   Overcast
12:35 AM 23.5 °F 14.5 °F 14.5 °F 69% 30.19 in 10.0 mi WNW 8.1 mph - N/A   Overcast
12:55 AM 23.4 °F 13.5 °F 15.3 °F 71% 30.19 in 10.0 mi NW 9.2 mph - N/A   Overcast
1:15 AM 23.0 °F 13.9 °F 13.8 °F 68% 30.20 in 10.0 mi NW 8.1 mph - N/A   Overcast
1:35 AM 22.1 °F 11.3 °F 15.1 °F 74% 30.20 in 10.0 mi NW 10.4 mph - N/A   Overcast
1:55 AM 21.9 °F 9.2 °F 14.7 °F 74% 30.20 in 10.0 mi NW 13.8 mph 20.7 mph N/A   Overcast
2:15 AM 21.4 °F 9.1 °F 13.6 °F 72% 30.20 in 7.0 mi NW 12.7 mph 20.7 mph N/A Snow Light Snow
3:55 AM 19.4 °F 11.5 °F 14.7 °F 82% 30.19 in 10.0 mi NW 5.8 mph - N/A   Overcast
4:15 AM 19.4 °F 10.4 °F 14.9 °F 83% 30.18 in 7.0 mi NW 6.9 mph - N/A Snow Light Snow
4:35 AM 19.2 °F 11.3 °F 15.1 °F 84% 30.19 in 7.0 mi NW 5.8 mph - N/A Snow Light Snow
4:55 AM 19.2 °F 10.2 °F 15.1 °F 84% 30.19 in 10.0 mi NW 6.9 mph - N/A Snow Light Snow
5:15 AM 19.4 °F 10.4 °F 15.8 °F 86% 30.20 in 7.0 mi NW 6.9 mph - N/A Snow Light Snow
5:35 AM 19.2 °F 10.2 °F 15.6 °F 86% 30.20 in 10.0 mi NW 6.9 mph - N/A Snow Light Snow
5:55 AM 18.7 °F 7.8 °F 14.7 °F 85% 30.20 in 10.0 mi NW 9.2 mph - N/A Snow Light Snow
6:15 AM 18.0 °F 7.7 °F 14.2 °F 85% 30.20 in 10.0 mi NW 8.1 mph - N/A Snow Light Snow
6:35 AM 17.4 °F 8.0 °F 14.0 °F 86% 30.20 in 10.0 mi NW 6.9 mph - N/A Snow Light Snow
6:55 AM 18.1 °F 7.1 °F 14.4 °F 85% 30.21 in 10.0 mi NW 9.2 mph - N/A   Mostly Cloudy
7:15 AM 18.5 °F 6.8 °F 14.9 °F 86% 30.21 in 10.0 mi NW 10.4 mph - N/A Snow Light Snow
7:35 AM 18.5 °F 6.8 °F 14.0 °F 83% 30.22 in 10.0 mi NNW 10.4 mph - N/A Snow Light Snow
7:55 AM 18.0 °F 5.4 °F 13.8 °F 84% 30.22 in 7.0 mi NNW 11.5 mph - N/A Snow Light Snow
8:15 AM 18.1 °F 7.1 °F 13.6 °F 83% 30.23 in 5.0 mi NW 9.2 mph - N/A Snow Light Snow
8:35 AM 17.8 °F 8.5 °F 13.3 °F 83% 30.23 in 7.0 mi WNW 6.9 mph - N/A Snow Light Snow
8:55 AM 18.1 °F 7.1 °F 13.5 °F 82% 30.23 in 10.0 mi NNW 9.2 mph - N/A Snow Light Snow
9:15 AM 18.1 °F 7.1 °F 13.1 °F 81% 30.22 in 10.0 mi NNW 9.2 mph - N/A   Overcast
9:35 AM 18.5 °F 8.4 °F 14.0 °F 83% 30.23 in 10.0 mi West 8.1 mph - N/A Snow Light Snow
9:55 AM 19.0 °F 12.3 °F 13.8 °F 80% 30.22 in 10.0 mi WNW 4.6 mph - N/A   Overcast
10:15 AM 19.9 °F 11.1 °F 13.8 °F 77% 30.22 in 10.0 mi WNW 6.9 mph - N/A   Mostly Cloudy
10:35 AM 20.1 °F 9.5 °F 14.2 °F 78% 30.22 in 10.0 mi NW 9.2 mph - N/A   Mostly Cloudy
10:50 AM 20.8 °F 12.1 °F 13.6 °F 74% 30.21 in 10.0 mi WNW 6.9 mph - N/A   Mostly Cloudy
11:20 AM 21.4 °F 10.4 °F 14.2 °F 74% 30.21 in 10.0 mi WNW 10.4 mph - N/A   Mostly Cloudy
11:35 AM 21.9 °F 13.4 °F 14.5 °F 73% 30.20 in 10.0 mi WNW 6.9 mph - N/A   Overcast
11:55 AM 22.1 °F 11.3 °F 14.7 °F 73% 30.21 in 10.0 mi NW 10.4 mph - N/A   Overcast
12:15 PM 23.0 °F 13.1 °F 15.6 °F 73% 30.20 in 10.0 mi WNW 9.2 mph - N/A   Overcast
12:35 PM 23.0 °F 11.1 °F 15.8 °F 74% 30.20 in 10.0 mi WNW 12.7 mph - N/A   Overcast
12:55 PM 22.8 °F 12.2 °F 15.1 °F 72% 30.19 in 10.0 mi WNW 10.4 mph - N/A   Overcast
1:15 PM 22.8 °F 12.9 °F 15.3 °F 73% 30.18 in 10.0 mi WNW 9.2 mph - N/A   Overcast
1:35 PM 22.6 °F 12.6 °F 15.1 °F 73% 30.18 in 10.0 mi NW 9.2 mph - N/A   Overcast
1:55 PM 22.8 °F 10.9 °F 15.3 °F 73% 30.19 in 10.0 mi WNW 12.7 mph 18.4 mph N/A   Overcast
2:15 PM 22.8 °F 10.9 °F 15.3 °F 73% 30.19 in 10.0 mi West 12.7 mph 20.7 mph N/A   Overcast
2:35 PM 23.0 °F 11.7 °F 15.3 °F 72% 30.18 in 10.0 mi WNW 11.5 mph - N/A   Overcast
2:55 PM 22.8 °F 11.5 °F 14.7 °F 71% 30.16 in 10.0 mi West 11.5 mph - N/A   Overcast
3:15 PM 23.0 °F 11.7 °F 15.3 °F 72% 30.17 in 10.0 mi WNW 11.5 mph - N/A   Overcast
3:35 PM 23.0 °F 11.7 °F 15.3 °F 72% 30.17 in 10.0 mi WNW 11.5 mph 19.6 mph N/A   Overcast
3:55 PM 23.0 °F 11.1 °F 14.9 °F 71% 30.16 in 10.0 mi WNW 12.7 mph 17.3 mph N/A   Mostly Cloudy
4:15 PM 23.0 °F 10.6 °F 14.7 °F 71% 30.16 in 10.0 mi WNW 13.8 mph - N/A   Mostly Cloudy
4:35 PM 22.6 °F 10.7 °F 14.9 °F 72% 30.15 in 10.0 mi NW 12.7 mph - N/A   Overcast
4:55 PM 22.5 °F 9.9 °F 14.9 °F 73% 30.14 in 10.0 mi WNW 13.8 mph 17.3 mph N/A   Overcast
5:15 PM 22.1 °F 10.6 °F 14.0 °F 71% 30.13 in 10.0 mi WNW 11.5 mph 17.3 mph N/A   Overcast
5:35 PM 21.6 °F 11.3 °F 14.5 °F 74% 30.13 in 10.0 mi WNW 9.2 mph - N/A   Overcast
5:55 PM 21.2 °F 10.1 °F 14.5 °F 75% 30.13 in 10.0 mi WNW 10.4 mph - N/A   Overcast
6:15 PM 21.2 °F 9.5 °F 14.0 °F 74% 30.14 in 10.0 mi WNW 11.5 mph - N/A   Mostly Cloudy
6:35 PM 20.7 °F 7.6 °F 12.0 °F 69% 30.15 in 10.0 mi WNW 13.8 mph 19.6 mph N/A   Scattered Clouds
6:55 PM 19.9 °F 7.3 °F 12.4 °F 72% 30.16 in 10.0 mi WNW 12.7 mph 17.3 mph N/A   Scattered Clouds
7:15 PM 19.0 °F 4.5 °F 10.9 °F 71% 30.15 in 10.0 mi WNW 16.1 mph 20.7 mph N/A   Mostly Cloudy
7:35 PM 18.1 °F 3.4 °F 9.1 °F 68% 30.16 in 10.0 mi NW 16.1 mph 20.7 mph N/A   Mostly Cloudy
7:55 PM 17.2 °F 1.7 °F 8.2 °F 68% 30.16 in 10.0 mi NW 17.3 mph 20.7 mph N/A   Mostly Cloudy
8:15 PM 16.3 °F 0.5 °F 5.9 °F 64% 30.16 in 10.0 mi NW 17.3 mph - N/A   Scattered Clouds
8:35 PM 15.4 °F -0.6 °F 5.7 °F 65% 30.16 in 10.0 mi WNW 17.3 mph 25.3 mph N/A   Mostly Cloudy
8:55 PM 14.4 °F -1.5 °F 1.9 °F 58% 30.18 in 10.0 mi WNW 16.1 mph 23.0 mph N/A   Mostly Cloudy
9:15 PM 13.6 °F -3.9 °F 0.9 °F 57% 30.18 in 10.0 mi WNW 19.6 mph 26.5 mph N/A   Scattered Clouds
9:35 PM 13.1 °F -2.6 °F 0.1 °F 56% 30.18 in 10.0 mi NW 15.0 mph 26.5 mph N/A   Clear
9:55 PM 12.6 °F -4.4 °F 1.4 °F 61% 30.18 in 10.0 mi NW 17.3 mph - N/A   Clear
10:15 PM 12.7 °F -5.1 °F 2.3 °F 63% 30.18 in 10.0 mi NW 19.6 mph 25.3 mph N/A   Clear
10:35 PM 12.6 °F -3.8 °F 3.0 °F 66% 30.18 in 10.0 mi NW 16.1 mph 26.5 mph N/A   Clear
10:55 PM 12.2 °F -4.3 °F 3.7 °F 69% 30.20 in 10.0 mi NW 16.1 mph 25.3 mph N/A   Clear
11:15 PM 11.8 °F -6.7 °F 3.2 °F 68% 30.18 in 10.0 mi NW 20.7 mph 26.5 mph N/A   Scattered Clouds
11:35 PM 10.9 °F -7.0 °F 2.7 °F 69% 30.19 in 10.0 mi NW 18.4 mph 24.2 mph N/A   Scattered Clouds
11:55 PM 10.4 °F -8.2 °F 2.3 °F 70% 30.19 in 10.0 mi NW 19.6 mph 27.6 mph N/A   Mostly Cloudy